Regional Weather Roundup
Issued by NWS Sioux Falls, SD

Home | Current Version | Previous Version | Text Only | Print | Product List | Glossary Off
Versions: 1 2 3 4 5 6 7 8 9 10 11 12 13 14 15 16 17 18 19 20 21 22 23 24 25 26 27 28 29 30 31 32 33 34 35 36 37 38 39 40 41 42 43 44 45 46 47 48 49 50

733
ASUS43 KFSD 060610
RWRFSD

WEATHER ROUNDUP FOR SE SOUTH DAKOTA/SW MINNESOTA/NW IOWA
NATIONAL WEATHER SERVICE SIOUX FALLS SD
1200 AM CST SAT FEB 06 2016

NOTE: "FAIR" INDICATES FEW OR NO CLOUDS BELOW 12,000 FEET WITH NO
SIGNIFICANT WEATHER AND OR OBSTRUCTIONS TO VISIBILITY.


SDZ038>040-050-052>070-060700-
SOUTHEAST SOUTH DAKOTA

CITY           SKY/WX    TMP DP  RH WIND       PRES   REMARKS
BROOKINGS      FOG       23  22  96 SW7       30.16F VSB 1/2 WCI  15
CHAMBERLAIN    CLEAR     25  23  91 SW6       30.18F WCI  18
6HR MIN TEMP:  25; 6HR MAX TEMP:  32;

HURON          CLEAR     25  21  85 S8        30.15F WCI  16
6HR MIN TEMP:  24; 6HR MAX TEMP:  32;

MADISON        FOG       23  23 100 SW9       30.16F VSB 1/4 WCI  13
MITCHELL       CLEAR     25  23  92 SW7       30.20F WCI  17
6HR MIN TEMP:  25; 6HR MAX TEMP:  33;

SIOUX FALLS    FOG       23  22  96 CALM      30.20S VSB 1/16
6HR MIN TEMP:  23; 6HR MAX TEMP:  30;

WINNER         FAIR      28  21  75 SW7       30.18F WCI  21
YANKTON        CLEAR     27  23  86 W7        30.23S WCI  19
$$

MNZ071-072-080-081-089-090-097-098-060700-
SOUTHWEST MINNESOTA

CITY           SKY/WX    TMP DP  RH WIND       PRES   REMARKS
FAIRMONT       CLOUDY    28  23  80 W10       30.18F WCI  19
JACKSON        CLOUDY    28  25  86 W10       30.18S WCI  19
LUVERNE        FOG       23  21  93 W7        30.21R VSB 1/4 WCI  15
MARSHALL       CLEAR     19  18  95 W14       30.17F FOG     WCI   6
6HR MIN TEMP:  18; 6HR MAX TEMP:  28;

MONTEVIDEO     CLEAR     19  16  86 W6        30.18S WCI  11
PIPESTONE        N/A     23  18  80 SW3       30.16F
REDWOOD FALLS  CLEAR     25  22  88 SW6       30.17F WCI  18
TRACY          CLEAR     20  18  93 SW10      30.17F WCI   8
WINDOM         PTCLDY    21  21 100 SW5       30.17S WCI  15
WORTHINGTON    CLEAR     21  18  86 W9        30.18S WCI  11
$$

IAZ001>003-012>014-020>022-031-032-NEZ013-014-SDZ071-060700-
NORTHWEST IOWA

CITY           SKY/WX    TMP DP  RH WIND       PRES   REMARKS
CHEROKEE       CLOUDY    28  28  99 W3        30.22S
DENISON        CLOUDY    28  27  93 CALM      30.21S FOG
ESTHERVILLE    CLOUDY    26  25  96 NW12      30.19S FOG     WCI  16
LE MARS        CLOUDY    28  30 100 NW6       30.24S WCI  22
ORANGE CITY    CLOUDY    27  25  93 NW6       30.21S WCI  20
SHELDON        MOCLDY    25  25 100 W6        30.19S WCI  18
SIOUX CITY     CLOUDY    31  27  85 NW12      30.24S WCI  22
6HR MIN TEMP:  27; 6HR MAX TEMP:  32;

SPENCER        CLOUDY    26  23  88 W6        30.20S FOG     WCI  19
6HR MIN TEMP:  26; 6HR MAX TEMP:  27;

STORM LAKE     CLOUDY    27  27 100 W7        30.20S FOG     WCI  19
$$

ABBREVIATIONS USED IN REMARKS
   TC - TEMPERATURE IN CELSIUS
  WCI - WIND CHILL INDEX
   HX - HEAT INDEX
  VSB - VISIBILITY





USA.gov is the U.S. government's official web portal to all federal, state and local government web resources and services.